Starlink 3926

operational
NORAD ID: 52543 Int'l Des: 2022-051 Owner: SPXS Country: US Constellation: starlink
LEOCIRCULAR

About Starlink 3926

Description loading...

Live Position

Loading 3D Globe...

Upcoming Passes

Altitude History

Altitude vs Time

uPlot chart will show altitude changes over time

Two-Line Element Set

1 52543U 22051L 25302.47010163 -.00001478 00000-0 -74773-4 0 9997
2 52543 53.2188 358.1877 0001448 65.6154 294.4989 15.08839783191638
Epoch: Oct 29, 2025 • Age: 15 hours

Current Status

Altitude 542.4 km
Velocity 7.60 km/s
Sub-Earth Point 37.45°N, 69.53°E
Launch Date May 13, 2022
Age 3.4 years
Type internet

Technical Details

Classification Payload
Mass 297.00 kg
Dry Mass 275.00 kg
Total Mass 297.00 kg
Length 0.20 m
Diameter 2.80 m
Span 9.00 m
Shape Box + pan
Manufacturer SPXS
Bus Type Starlink
Phase Status In Orbit
Owner/State SPXS/US

Large Constellations

Loading constellations...